Glenwood, MN

1:36 AM CDT on May 23, 2017 (GMT -0500)
Glenwood Municipal

Weather History for KGHW - June, 2012

Change the Weather History Date:

Monday, June 4, 2012

  Actual Average Record
Temperature  
Mean Temperature 70 °F -  
Max Temperature 82 °F 76 °F 94 °F (1968)
Min Temperature 57 °F 51 °F 36 °F (1951)
Cooling Degree Days 4    
Growing Degree Days 20 (Base 50)    
Moisture  
Dew Point 44 °F    
Average Humidity 42    
Maximum Humidity 82    
Minimum Humidity 18    
Precipitation  
Precipitation 0.00 in - - ()
Sea Level Pressure  
Sea Level Pressure 29.94 in    
Wind  
Wind Speed 5 mph (NNW)    
Max Wind Speed 15 mph    
Max Gust Speed 22 mph    
Visibility 10 miles    
Events      
Averages and records for this station are not official NWS values.
T = Trace of Precipitation, MM = Missing Value Source: NWS Daily Summary

Daily Weather History Graph

Daily Weather History Graph

Search for Another Location

Airport or City:

Trip Planner

Search our weather history database for the weather conditions in past years. The results will help you decide how hot, cold, wet, or windy it might be!

Date:

Astronomy

Jun. 04, 2012 Rise Set
Actual Time 5:33 AM CDT 9:06 PM CDT
Civil Twilight 4:56 AM CDT 9:43 PM CDT
Nautical Twilight 4:06 AM CDT 10:33 PM CDT
Astronomical Twilight 3:02 AM CDT 11:38 PM CDT
Moon 9:35 PM CDT (6/4) 5:42 AM CDT (6/4)
Length of Visible Light 16h 47m
Length of Day
15h 32m
Full, 100% of the Moon is Illuminated
Jun 4
Full
Jun 11
Last Quarter
Jun 19
New
Jun 26
First Quarter
Jul 3
Full

Hourly Weather History & Observations

Time (CDT) Temp. Dew Point Humidity Pressure Visibility Wind Dir Wind Speed Gust Speed Precip Events Conditions
12:14 AM - 48.2 °F N/A% 2.98 in 10.0 mi SE 4.6 mph - N/A   Clear
12:34 AM 62.6 °F 48.2 °F 59% 29.85 in 10.0 mi Calm Calm - N/A   Clear
12:54 AM 62.6 °F 48.2 °F 59% 29.85 in 10.0 mi SE 4.6 mph - N/A   Clear
1:13 AM 60.8 °F 48.2 °F 63% 29.86 in 10.0 mi ESE 3.5 mph - N/A   Clear
1:34 AM 60.8 °F 50.0 °F 68% 29.86 in 10.0 mi ESE 3.5 mph - N/A   Clear
1:54 AM 60.8 °F 50.0 °F 68% 29.86 in 10.0 mi ESE 3.5 mph - N/A   Scattered Clouds
2:13 AM 60.8 °F 48.2 °F 63% 29.86 in 10.0 mi SSE 3.5 mph - N/A   Mostly Cloudy
2:33 AM 62.6 °F 48.2 °F 59% 29.86 in 10.0 mi Calm Calm - N/A   Scattered Clouds
2:53 AM 62.6 °F 48.2 °F 59% 29.87 in 10.0 mi Calm Calm - N/A   Clear
3:14 AM 62.6 °F 48.2 °F 59% 29.87 in 10.0 mi Calm Calm - N/A   Clear
3:33 AM 60.8 °F 48.2 °F 63% 29.88 in 10.0 mi Calm Calm - N/A   Clear
3:53 AM 60.8 °F 50.0 °F 68% 29.88 in 10.0 mi Calm Calm - N/A   Scattered Clouds
4:13 AM 60.8 °F 50.0 °F 68% 29.88 in 10.0 mi Calm Calm - N/A   Scattered Clouds
4:33 AM 60.8 °F 48.2 °F 63% 29.88 in 10.0 mi Calm Calm - N/A   Clear
4:54 AM 57.2 °F 48.2 °F 72% 29.89 in 10.0 mi Calm Calm - N/A   Clear
5:13 AM 59.0 °F 48.2 °F 67% 29.89 in 10.0 mi Calm Calm - N/A   Clear
5:34 AM 60.8 °F 48.2 °F 63% 29.90 in 10.0 mi Calm Calm - N/A   Clear
5:54 AM 57.2 °F 48.2 °F 72% 29.90 in 10.0 mi South 3.5 mph - N/A   Clear
6:14 AM 57.2 °F 48.2 °F 72% 29.91 in 10.0 mi Calm Calm - N/A   Clear
6:33 AM 57.2 °F 33.8 °F 41% 29.91 in 10.0 mi SSW 4.6 mph - N/A   Clear
6:53 AM 57.2 °F 51.8 °F 82% 29.91 in 10.0 mi SSW 4.6 mph - N/A   Clear
7:13 AM 62.6 °F 53.6 °F 72% 29.92 in 7.0 mi Calm Calm - N/A   Clear
7:34 AM 64.4 °F 53.6 °F 68% 29.93 in 10.0 mi Calm Calm - N/A   Clear
7:53 AM 66.2 °F 51.8 °F 60% 29.93 in 10.0 mi SW 3.5 mph - N/A   Clear
8:14 AM 68.0 °F 51.8 °F 56% 29.94 in 10.0 mi WSW 4.6 mph - N/A   Clear
8:34 AM 69.8 °F 50.0 °F 49% 29.94 in 10.0 mi West 5.8 mph - N/A   Clear
8:54 AM 69.8 °F 51.8 °F 53% 29.95 in 10.0 mi West 5.8 mph - N/A   Clear
9:13 AM 71.6 °F 51.8 °F 50% 29.95 in 10.0 mi NW 6.9 mph - N/A   Clear
9:33 AM 71.6 °F 51.8 °F 50% 29.95 in 10.0 mi NNW 8.1 mph - N/A   Clear
9:54 AM 73.4 °F 51.8 °F 47% 29.95 in 10.0 mi North 5.8 mph - N/A   Clear
10:14 AM 75.2 °F 53.6 °F 47% 29.95 in 10.0 mi NW 4.6 mph - N/A   Clear
10:33 AM 75.2 °F 53.6 °F 47% 29.96 in 10.0 mi NW 5.8 mph - N/A   Clear
10:53 AM 75.2 °F 53.6 °F 47% 29.96 in 10.0 mi NNW 10.4 mph - N/A   Clear
11:34 AM 78.8 °F 53.6 °F 42% 29.96 in 10.0 mi North 8.1 mph - N/A   Clear
11:54 AM 78.8 °F 53.6 °F 42% 29.95 in 10.0 mi NNE 11.5 mph - N/A   Clear
12:14 PM 80.6 °F 48.2 °F 32% 29.95 in 10.0 mi NNW 11.5 mph 16.1 mph N/A   Clear
12:33 PM 80.6 °F 44.6 °F 28% 29.96 in 10.0 mi North 10.4 mph 17.3 mph N/A   Clear
12:53 PM 80.6 °F 42.8 °F 26% 29.97 in 10.0 mi NNW 10.4 mph 18.4 mph N/A   Clear
1:14 PM 80.6 °F 42.8 °F 26% 29.97 in 10.0 mi NW 10.4 mph - N/A   Clear
1:33 PM 80.6 °F 41.0 °F 24% 29.97 in 10.0 mi NNW 6.9 mph - N/A   Clear
1:54 PM 80.6 °F 42.8 °F 26% 29.97 in 10.0 mi NW 6.9 mph 16.1 mph N/A   Clear
2:14 PM 80.6 °F 41.0 °F 24% 29.97 in 10.0 mi West 5.8 mph 10.4 mph N/A   Clear
2:33 PM 80.6 °F 41.0 °F 24% 29.97 in 10.0 mi North 8.1 mph - N/A   Clear
2:54 PM 82.4 °F 39.2 °F 21% 29.97 in 10.0 mi WNW 9.2 mph - N/A   Clear
3:13 PM 82.4 °F 37.4 °F 20% 29.97 in 10.0 mi NW 8.1 mph - N/A   Clear
3:34 PM 82.4 °F 37.4 °F 20% 29.97 in 10.0 mi NNW 5.8 mph 9.2 mph N/A   Clear
3:53 PM 82.4 °F 37.4 °F 20% 29.96 in 10.0 mi NNW 11.5 mph - N/A   Clear
4:13 PM 82.4 °F 35.6 °F 19% 29.96 in 10.0 mi North 11.5 mph - N/A   Clear
4:34 PM 80.6 °F 33.8 °F 18% 29.96 in 10.0 mi NNW 15.0 mph 19.6 mph N/A   Clear
4:53 PM 80.6 °F 33.8 °F 18% 29.96 in 10.0 mi NNW 9.2 mph 17.3 mph N/A   Clear
5:13 PM 80.6 °F 33.8 °F 18% 29.96 in - North 11.5 mph - N/A   Clear
5:33 PM 80.6 °F 33.8 °F 18% 29.96 in 10.0 mi NNW 11.5 mph 21.9 mph N/A   Clear
5:53 PM 80.6 °F 33.8 °F 18% 29.96 in 10.0 mi NNW 13.8 mph - N/A   Clear
6:14 PM 80.6 °F 33.8 °F 18% 29.96 in 10.0 mi North 11.5 mph 17.3 mph N/A   Clear
6:33 PM 80.6 °F 33.8 °F 18% 29.96 in 10.0 mi NNW 12.7 mph - N/A   Clear
6:54 PM 78.8 °F 33.8 °F 20% 29.97 in 10.0 mi North 13.8 mph - N/A   Clear
7:14 PM 78.8 °F 33.8 °F 20% 29.96 in 10.0 mi North 9.2 mph - N/A   Clear
7:34 PM 78.8 °F 33.8 °F 20% 29.97 in 10.0 mi North 9.2 mph - N/A   Clear
7:53 PM 77.0 °F 33.8 °F 21% 29.97 in 10.0 mi North 8.1 mph - N/A   Clear
8:13 PM 75.2 °F 35.6 °F 24% 29.98 in 10.0 mi North 8.1 mph - N/A   Clear
8:34 PM 73.4 °F 37.4 °F 27% 29.97 in 10.0 mi North 6.9 mph - N/A   Clear
8:54 PM 71.6 °F 37.4 °F 29% 29.98 in 10.0 mi North 5.8 mph - N/A   Clear
9:14 PM 69.8 °F 39.2 °F 33% 29.98 in 10.0 mi North 3.5 mph - N/A   Clear
9:34 PM 69.8 °F 39.2 °F 33% 29.98 in 10.0 mi North 4.6 mph - N/A   Clear
9:53 PM 69.8 °F 39.2 °F 33% 29.98 in 10.0 mi North 5.8 mph - N/A   Clear
10:13 PM 68.0 °F 39.2 °F 35% 29.98 in 10.0 mi North 3.5 mph - N/A   Clear
10:33 PM 66.2 °F 42.8 °F 43% 29.98 in 10.0 mi North 3.5 mph - N/A   Clear
10:54 PM 66.2 °F 41.0 °F 40% 29.98 in 10.0 mi North 3.5 mph - N/A   Clear
11:34 PM 66.2 °F 39.2 °F 37% 29.99 in 10.0 mi North 4.6 mph - N/A   Clear
11:53 PM 66.2 °F 41.0 °F 40% 29.99 in 10.0 mi NNE 4.6 mph - N/A   Clear